GSAT0201 (GALILEO 5)

Last updated on Feb. 25, 2020, 4:50 a.m. UTC

1 40128U 14050A   20054.59239906 -.00000112  00000-0  00000+0 0  9993
2 40128  50.5805   5.9548 1663022  95.5800 283.5131  1.85519014 37487
UTC
Height (km)
Latitude
Longitude
Inclination
Orbital Period
UTC large
Height (km)
Speed (km/s)
/
Latitude / Longitude
Inclination (degrees)
Orbital Period (minutes)
Azimuth
Elevation
Range (km)
Doppler Factor
iOS Compass Heading
iOS Angle

Next 30 passes for location: Hong Kong

Rise time Rise Azimuth (degrees) Set time Set Azimuth (degrees) Duration Max altitude (degrees)

No matching passes for this satellites